SL-12 DEB, 41768

Orbit data source: Space-Track

SL-12 DEB, 41768 is space debris in HEO originally from a launch on Mon, 25 Dec 2006 UTC launched from the Tyuratam Missile And Space Complex (TTMTR). Debris objects in space refer to the collection of defunct objects orbiting the Earth. Examples of debris include non-operational satellites, rocket bodies, and fragments generated from explosions, collisions, or faulty payload assembly.

Loading next visibility...
Identifier
41768, 2006-062J
Orbit
HEO
Last TLE update
3 days ago
Origin
Manufacturer
RKKE
Mission
Spacecraft
Bus & Motor
Unknown
Mass
Unknown
Launch date (UTC)
2006-12-25 (19 years ago)
Launch vehicle
Unknown
Launch site
Tyuratam Missile And Space Complex (TTMTR)
Object type
Payload
Rocket body
Debris
Shape & HBR
Unknown
Radar Cross Section
Small (<0.1 m²)

Expand to show TLE details & history

TLE from 3 days ago
0 SL-12 DEB
1 41768U 06062J   25180.42761357 -.00000600  00000-0 -43824-2 0  9992
2 41768  64.7039  60.0697 5453959 295.7713  18.5723  4.48777376139809
Epoch: 2025-06-29T10:15Z
TLE epoch observation values (Epoch: 2025-06-29T10:15:45.812Z)
Latitude
-0.00011°
Longitude
-11.60836°
Altitude
2,451.818 km
Speed
8.039 km/s
True Right ascension
04h 00m 20s
True Declination
0° 00' 00"
Sunlit
Object was in daylight at epoch
Visualization orbit readout
Latitude
58.47986°
Longitude
116.77073°
Altitude
17,458.399 km
Speed
2.791 km/s
Apparent Right ascension
14h 06m 09s
Apparent Declination
55° 30' 42"
Sunlit
Object is in daylight
Visualization observer readout
Local Sidereal Time
08:21:23
Azimuth
42.898° NE
Elevation
33.899°
Doppler factor
1
Orbital elements
Apogee altitude
17,613.364 km
Perigee altitude
679.365 km
Semi-major axis
15,524.502 km
Eccentricity
0.5454
Inclination
64.7039°
RAAN
60.0697°
Arg. of periapsis
295.7713°
True anomaly
Unknown
Mean anomaly
18.5723°
Eccentric anomaly
Unknown
Mean motion
1.12206 °/min
Orbital period
320.84 mins
BSTAR
-0.0043824
Loading maneuver chart data...
Loading SW <> Apogee altitude chart data...
Loading historical data...
Loading historical data...
Loading historical data...
Loading historical data...
Loading historical data...
Loading historical data...
Loading historical data...

SL-12 DEB Visibility forecast

Observer location: undefined°, undefined°

Span
Click to sort rows by Start time (UTC) header in descending order
Start Az.
Max El. time (UTC)
Max El. Az.
Max El.
End time (UTC)
End Az.
87 mins2025-07-02 20:37:19.928Z42.923° NE2025-07-02 20:37:19.928Z42.923° NE29.151°2025-07-02 22:04:19.928Z73.952° E
226 mins2025-07-03 00:31:19.928Z315.167° NNW2025-07-03 03:01:19.928Z266.696° W44.825°2025-07-03 04:17:19.928Z176.718° S
90 mins2025-07-03 06:52:19.928Z332.368° NNW2025-07-03 07:35:19.928Z317.892° NNW14.515°2025-07-03 08:22:19.928Z300.637° NW
135 mins2025-07-03 15:55:19.928Z168.598° S2025-07-03 16:13:19.928Z94.418° ESE41.096°2025-07-03 18:10:19.928Z36.703° NE
|